TimeCST,TemperatureF,Dew PointF,Humidity,Sea Level PressureIn,VisibilityMPH,Wind Direction,Wind SpeedMPH,Gust SpeedMPH,PrecipitationIn,Events,Conditions,WindDirDegrees,DateUTC
1:52 AM,10.9,-0.9,59,30.35,10.0,WSW,6.9,-,N/A,,Overcast,250,2013-01-23 07:52:00
2:52 AM,10.9,-0.9,59,30.35,10.0,West,6.9,-,N/A,,Overcast,260,2013-01-23 08:52:00
3:52 AM,12.0,-0.9,56,30.34,10.0,West,11.5,-,N/A,,Overcast,260,2013-01-23 09:52:00
4:52 AM,12.0,-0.0,59,30.32,10.0,West,5.8,-,N/A,,Overcast,260,2013-01-23 10:52:00
5:52 AM,12.0,1.0,61,30.30,10.0,WSW,6.9,-,N/A,,Overcast,240,2013-01-23 11:52:00
6:52 AM,12.9,1.0,59,30.31,10.0,WSW,5.8,-,N/A,,Overcast,240,2013-01-23 12:52:00
7:52 AM,12.9,1.9,62,30.30,10.0,SSW,6.9,-,N/A,,Overcast,210,2013-01-23 13:52:00
8:52 AM,12.9,3.9,67,30.30,10.0,SW,10.4,-,N/A,,Overcast,220,2013-01-23 14:52:00
9:22 AM,12.2,6.8,79,30.25,2.5,SW,10.4,-,0.00,Snow,Light Snow,230,2013-01-23 15:22:00
9:49 AM,12.2,6.8,79,30.25,5.0,SW,11.5,-,0.00,Snow,Light Snow,220,2013-01-23 15:49:00
9:52 AM,12.9,7.0,77,30.30,5.0,SW,10.4,-,0.00,Snow,Light Snow,220,2013-01-23 15:52:00
10:52 AM,15.1,8.1,74,30.28,9.0,SW,11.5,-,0.00,,Overcast,220,2013-01-23 16:52:00
11:52 AM,16.0,9.0,74,30.23,5.0,SSW,10.4,-,0.00,Snow,Light Snow,200,2013-01-23 17:52:00
12:52 PM,18.0,10.9,74,30.19,4.0,SSW,8.1,-,0.00,Snow,Light Snow,210,2013-01-23 18:52:00
1:10 PM,17.6,12.2,79,30.13,2.5,SW,8.1,-,0.00,Snow,Light Snow,220,2013-01-23 19:10:00
1:20 PM,17.6,12.2,79,30.13,3.0,SSW,9.2,-,0.00,Snow,Light Snow,210,2013-01-23 19:20:00
1:52 PM,18.0,12.0,78,30.16,5.0,SW,8.1,-,0.00,Snow,Light Snow,230,2013-01-23 19:52:00
2:52 PM,19.0,9.0,65,30.15,10.0,WSW,9.2,-,0.00,,Overcast,240,2013-01-23 20:52:00
3:52 PM,19.9,8.1,60,30.16,10.0,WSW,10.4,-,N/A,,Overcast,250,2013-01-23 21:52:00
4:52 PM,19.0,10.0,68,30.16,10.0,West,10.4,-,N/A,,Overcast,270,2013-01-23 22:52:00
5:52 PM,19.0,10.9,71,30.17,10.0,WNW,6.9,-,N/A,,Overcast,290,2013-01-23 23:52:00
6:52 PM,19.9,10.9,68,30.17,10.0,WNW,11.5,-,N/A,,Overcast,300,2013-01-24 00:52:00
7:52 PM,19.9,14.0,78,30.20,10.0,WNW,17.3,23.0,0.00,,Overcast,290,2013-01-24 01:52:00
8:08 PM,19.4,12.2,74,30.17,1.8,NW,26.5,36.8,0.00,Snow,Light Snow,320,2013-01-24 02:08:00
8:29 PM,17.6,15.8,93,30.19,2.0,NW,19.6,28.8,0.00,Snow,Light Snow,320,2013-01-24 02:29:00
8:40 PM,17.6,10.4,73,30.19,9.0,NNW,23.0,28.8,0.00,,Mostly Cloudy,340,2013-01-24 02:40:00
8:47 PM,17.6,8.6,68,30.20,10.0,NNW,23.0,28.8,0.00,,Scattered Clouds,330,2013-01-24 02:47:00
8:52 PM,17.1,8.1,68,30.25,10.0,NNW,20.7,29.9,0.00,,Scattered Clouds,330,2013-01-24 02:52:00
9:14 PM,15.8,8.6,73,30.22,10.0,NNW,25.3,32.2,N/A,,Mostly Cloudy,340,2013-01-24 03:14:00
9:31 PM,15.8,6.8,68,30.24,10.0,NNW,23.0,35.7,0.00,,Mostly Cloudy,340,2013-01-24 03:31:00
9:52 PM,14.0,3.9,64,30.30,10.0,NNW,23.0,31.1,0.00,,Scattered Clouds,340,2013-01-24 03:52:00
10:52 PM,10.9,1.0,64,30.35,10.0,North,21.9,28.8,N/A,,Clear,350,2013-01-24 04:52:00
11:52 PM,9.0,-2.0,61,30.39,10.0,NNW,15.0,-,N/A,,Clear,340,2013-01-24 05:52:00